Monticello, AR

7:55 AM CST on December 11, 2016 (GMT -0600)
Monticello Municipal-Ellis

Weather History for KLLQ - August, 2014

Change the Weather History Date:

Sunday, August 17, 2014

  Actual Average Record
Temperature  
Mean Temperature 85 °F -  
Max Temperature 93 °F 92 °F 101 °F (1956)
Min Temperature 77 °F 69 °F 52 °F (1992)
Cooling Degree Days 20    
Growing Degree Days 35 (Base 50)    
Moisture  
Dew Point 73 °F    
Average Humidity 71    
Maximum Humidity 90    
Minimum Humidity 50    
Precipitation  
Precipitation 0.00 in - - ()
Sea Level Pressure  
Sea Level Pressure 29.93 in    
Wind  
Wind Speed 9 mph (SW)    
Max Wind Speed 16 mph    
Max Gust Speed 23 mph    
Visibility 10 miles    
Events      
Averages and records for this station are not official NWS values.
T = Trace of Precipitation, MM = Missing Value Source: NWS Daily Summary

Daily Weather History Graph

Daily Weather History Graph

Search for Another Location

Airport or City:

Trip Planner

Search our weather history database for the weather conditions in past years. The results will help you decide how hot, cold, wet, or windy it might be!

Date:

Astronomy

Aug. 17, 2014 Rise Set
Actual Time 6:30 AM CDT 7:50 PM CDT
Civil Twilight 6:04 AM CDT 8:17 PM CDT
Nautical Twilight 5:33 AM CDT 8:48 PM CDT
Astronomical Twilight 5:00 AM CDT 9:20 PM CDT
Moon No Moon Rise 1:53 PM CDT (8/17)
Length of Visible Light 14h 12m
Length of Day
13h 20m
Waning Gibbous, 48% of the Moon is Illuminated
Aug 17
Waning Gibbous
Aug 25
New
Sep 2
First Quarter
Sep 8
Full
Sep 15
Last Quarter

Hourly Weather History & Observations

Time (CDT) Temp. Heat Index Dew Point Humidity Pressure Visibility Wind Dir Wind Speed Gust Speed Precip Events Conditions
12:53 AM 81.0 °F 85.8 °F 73.0 °F 77% 29.92 in 10.0 mi South 8.1 mph - N/A   Clear
2:53 AM 80.1 °F 84.2 °F 73.0 °F 79% 29.92 in 10.0 mi SW 9.2 mph - N/A   Clear
3:53 AM 79.0 °F - 73.0 °F 82% 29.93 in 10.0 mi SW 8.1 mph - N/A   Partly Cloudy
4:53 AM 78.1 °F - 73.9 °F 87% 29.92 in 10.0 mi SW 9.2 mph - N/A   Clear
5:53 AM 78.1 °F - 73.9 °F 87% 29.93 in 10.0 mi SW 9.2 mph - N/A   Clear
6:53 AM 77.0 °F - 73.9 °F 90% 29.96 in 10.0 mi SW 6.9 mph - N/A   Partly Cloudy
7:53 AM 78.1 °F - 73.9 °F 87% 29.96 in 10.0 mi WSW 8.1 mph - N/A   Mostly Cloudy
8:14 AM 79.0 °F - 73.9 °F 84% 29.97 in 10.0 mi SW 8.1 mph - N/A   Overcast
8:53 AM 80.1 °F 85.1 °F 75.0 °F 85% 29.97 in 10.0 mi WSW 9.2 mph 20.7 mph N/A   Mostly Cloudy
9:53 AM 84.0 °F 92.6 °F 75.9 °F 76% 29.96 in 10.0 mi WSW 8.1 mph - N/A   Scattered Clouds
10:53 AM 86.0 °F 95.1 °F 75.0 °F 70% 29.96 in 10.0 mi West 12.7 mph - N/A   Scattered Clouds
11:53 AM 87.1 °F 96.3 °F 75.0 °F 67% 29.96 in 10.0 mi SSW 10.4 mph 16.1 mph N/A   Mostly Cloudy
12:53 PM 89.1 °F 98.0 °F 73.9 °F 61% 29.95 in 10.0 mi SW 9.2 mph - N/A   Mostly Cloudy
1:53 PM 91.9 °F 100.7 °F 73.0 °F 54% 29.95 in 10.0 mi West 16.1 mph 23.0 mph N/A   Scattered Clouds
2:53 PM 91.9 °F 100.7 °F 73.0 °F 54% 29.93 in 10.0 mi West 11.5 mph - N/A   Mostly Cloudy
3:53 PM 93.0 °F 100.7 °F 72.0 °F 50% 29.91 in 10.0 mi WSW 10.4 mph 19.6 mph N/A   Partly Cloudy
4:53 PM 93.0 °F 100.7 °F 72.0 °F 50% 29.90 in 10.0 mi WSW 8.1 mph - N/A   Clear
5:53 PM 91.0 °F 98.2 °F 72.0 °F 53% 29.91 in 10.0 mi WSW 6.9 mph - N/A   Clear
6:53 PM 90.0 °F 97.9 °F 73.0 °F 57% 29.89 in 10.0 mi SW 5.8 mph - N/A   Clear
7:53 PM 86.0 °F 93.0 °F 73.0 °F 65% 29.90 in 10.0 mi South 4.6 mph - N/A   Clear
8:53 PM 86.0 °F 93.0 °F 73.0 °F 65% 29.91 in 10.0 mi SW 5.8 mph - N/A   Clear
9:53 PM 84.0 °F 90.2 °F 73.0 °F 69% 29.93 in 10.0 mi SSW 4.6 mph - N/A   Clear
10:53 PM 82.0 °F 87.4 °F 73.0 °F 74% 29.93 in 10.0 mi SSW 9.2 mph - N/A   Clear
11:53 PM 80.1 °F 83.8 °F 72.0 °F 76% 29.93 in 10.0 mi SSW 8.1 mph - N/A   Clear